Weather History for MROC - November, 2014

Change the Weather History Date:

Monday, November 24, 2014

  Actual Average Record
Temperature  
Mean Temperature 71 °F -  
Max Temperature 81 °F 79 °F 84 °F (1997)
Min Temperature 61 °F 64 °F 60 °F (1996)
Cooling Degree Days 6    
Growing Degree Days 21 (Base 50)    
Moisture  
Dew Point 65 °F    
Average Humidity 81    
Maximum Humidity 100    
Minimum Humidity 60    
Precipitation  
Precipitation 0.04 in 0.07 in - ()
Sea Level Pressure  
Sea Level Pressure 29.95 in    
Wind  
Wind Speed 5 mph ()    
Max Wind Speed 14 mph    
Max Gust Speed -    
Visibility 5.9 miles    
Events Fog , Rain    
Averages and records for this station are not official NWS values.
T = Trace of Precipitation, MM = Missing Value Source: Averaged Metar Reports

Daily Weather History Graph

Daily Weather History Graph

Search for Another Location

Airport or City:

Trip Planner

Search our weather history database for the weather conditions in past years. The results will help you decide how hot, cold, wet, or windy it might be!

Date:

Astronomy

Nov. 24, 2014 Rise Set
Actual Time 5:35 AM CST 5:12 PM CST
Civil Twilight 5:12 AM CST 5:34 PM CST
Nautical Twilight 4:46 AM CST 6:00 PM CST
Astronomical Twilight 4:21 AM CST 6:26 PM CST
Moon 7:29 AM CST 7:28 PM CST
Length of Visible Light 12h 21m
Length of Day
11h 36m
Waxing Crescent, 6% of the Moon is Illuminated
Nov 24
Waxing Crescent
Nov 29
First Quarter
Dec 6
Full
Dec 14
Last Quarter
Dec 21
New

Hourly Weather History & Observations

Time (CST) Temp. Heat Index Dew Point Humidity Pressure Visibility Wind Dir Wind Speed Gust Speed Precip Events Conditions
12:00 AM 65 °F - 61 °F 84% 29.83 in 12 mi Calm Calm - -  
12:00 AM 66.2 °F - 60.8 °F 83% 29.96 in - Calm Calm - N/A   Clear
1:00 AM 66.2 °F - 60.8 °F 83% 29.95 in - NNE 4.6 mph - N/A   Clear
2:00 AM 64.4 °F - 60.8 °F 88% 29.94 in - Variable 2.3 mph - N/A   Clear
3:00 AM 63 °F - 60 °F 85% 29.81 in 12 mi East 4.6 mph - -  
3:00 AM 62.6 °F - 59.0 °F 88% 29.93 in - East 4.6 mph - N/A   Clear
4:00 AM 62.6 °F - 59.0 °F 88% 29.94 in - NE 6.9 mph - N/A   Clear
5:00 AM 64.4 °F - 59.0 °F 83% 29.95 in - NE 4.6 mph - N/A   Clear
6:00 AM 62 °F - 57 °F 80% 29.87 in 12 mi NE 6.9 mph - -  
6:00 AM 62.6 °F - 57.2 °F 82% 29.97 in - NE 6.9 mph - N/A   Clear
7:00 AM 69.8 °F - 60.8 °F 73% 30.00 in - East 3.5 mph - N/A   Clear
8:00 AM 75.2 °F - 60.8 °F 61% 30.01 in - NNE 6.9 mph - N/A   Clear
8:30 AM 77.0 °F - 62.6 °F 61% 30.02 in - West 4.6 mph - N/A   Clear
9:00 AM 78 °F - 69 °F 67% 29.88 in 12 mi West 4.6 mph - -   Clear
9:00 AM 77.0 °F - 62.6 °F 61% 30.02 in - West 4.6 mph - N/A   Clear
10:00 AM 78.8 °F - 64.4 °F 61% 30.02 in 6.2 mi WSW 9.2 mph - N/A   Partly Cloudy
11:00 AM 78.8 °F - 66.2 °F 65% 30.01 in 6.2 mi WSW 9.2 mph - N/A   Scattered Clouds
12:00 PM 80 °F - 68 °F 60% 29.84 in 12 mi SW 11.5 mph - -   Partly Cloudy
12:00 PM 80.6 °F 83.2 °F 68.0 °F 65% 29.98 in 6.2 mi SW 11.5 mph - N/A   Scattered Clouds
1:00 PM 78.8 °F - 68.0 °F 69% 29.95 in 6.2 mi SW 9.2 mph - N/A   Scattered Clouds
2:00 PM 78.8 °F - 68.0 °F 69% 29.94 in 6.2 mi WSW 10.4 mph - N/A   Mostly Cloudy
3:00 PM 75 °F - 69 °F 76% 29.81 in 12 mi WSW 13.8 mph - -   Partly Cloudy
3:00 PM 75.2 °F - 68.0 °F 78% 29.94 in 6.2 mi WSW 13.8 mph - N/A   Mostly Cloudy
3:20 PM 75.2 °F - 69.8 °F 83% 29.94 in 6.2 mi WSW 11.5 mph - N/A Rain Rain
4:00 PM 73.4 °F - 69.8 °F 88% 29.94 in 6.2 mi WSW 10.4 mph - N/A Rain Light Rain
5:00 PM 71.6 °F - 69.8 °F 94% 29.96 in 6.2 mi SW 8.1 mph - N/A   Mostly Cloudy
6:00 PM 71 °F - 69 °F 92% 29.88 in 5 mi WSW 4.6 mph - - Fog Light Fog
6:00 PM 71.6 °F - 69.8 °F 94% 29.98 in 5.0 mi WSW 4.6 mph - N/A Fog Fog
7:00 PM 69.8 °F - 69.8 °F 100% 30.00 in 1.9 mi WSW 5.8 mph - N/A   Mostly Cloudy
8:00 PM 69.8 °F - 68.0 °F 94% 30.03 in 1.9 mi WSW 4.6 mph - N/A Rain Light Rain
8:36 PM 69.8 °F - 68.0 °F 94% 30.04 in 0.3 mi West 3.5 mph - N/A Fog Fog
9:00 PM 69 °F - 68 °F 97% 29.89 in 0 mi Calm Calm - - Fog Heavy Fog
9:00 PM 69.8 °F - 68.0 °F 94% 30.04 in 0.3 mi West 2.3 mph - N/A Fog Fog
9:20 PM 69.8 °F - 68.0 °F 94% 30.03 in 1.2 mi Calm Calm - N/A   Light Drizzle
10:00 PM 69.8 °F - 68.0 °F 94% 30.03 in 1.9 mi Calm Calm - N/A   Mostly Cloudy
11:00 PM 69.8 °F - 68.0 °F 94% 30.03 in 3.1 mi West 3.5 mph - N/A   Mostly Cloudy